TimeEST,TemperatureF,Dew PointF,Humidity,Sea Level PressureIn,VisibilityMPH,Wind Direction,Wind SpeedMPH,Gust SpeedMPH,PrecipitationIn,Events,Conditions,WindDirDegrees,DateUTC
12:56 AM,44.1,30.9,60,30.28,-9999.0,NW,10.4,-,N/A,,Clear,310,2013-01-05 05:56:00
1:56 AM,41.0,28.0,60,30.30,-9999.0,WNW,9.2,-,N/A,,Clear,300,2013-01-05 06:56:00
2:56 AM,39.9,25.0,55,30.30,-9999.0,WNW,9.2,-,N/A,,Clear,300,2013-01-05 07:56:00
3:56 AM,39.0,25.0,57,30.31,-9999.0,NW,8.1,-,N/A,,Clear,320,2013-01-05 08:56:00
4:56 AM,37.9,25.0,60,30.32,-9999.0,NW,8.1,-,0.00,,Clear,310,2013-01-05 09:56:00
5:56 AM,37.0,26.1,65,30.33,-9999.0,NW,8.1,-,N/A,,Clear,310,2013-01-05 10:56:00
6:56 AM,36.0,26.1,67,30.35,-9999.0,NW,8.1,-,0.00,,Clear,310,2013-01-05 11:56:00
7:56 AM,37.9,26.1,62,30.38,-9999.0,NW,5.8,-,N/A,,Clear,310,2013-01-05 12:56:00
8:56 AM,41.0,26.1,55,30.39,-9999.0,NW,8.1,-,N/A,,Clear,320,2013-01-05 13:56:00
9:56 AM,44.1,27.0,51,30.40,-9999.0,North,3.5,-,N/A,,Clear,10,2013-01-05 14:56:00
10:56 AM,45.0,28.9,53,30.40,-9999.0,NW,5.8,-,N/A,,Clear,320,2013-01-05 15:56:00
11:56 AM,45.0,28.9,53,30.38,-9999.0,North,9.2,-,N/A,,Clear,360,2013-01-05 16:56:00
12:56 PM,45.0,28.9,53,30.35,-9999.0,NE,8.1,-,N/A,,Clear,40,2013-01-05 17:56:00
1:56 PM,46.9,30.0,52,30.35,-9999.0,Variable,4.6,-,N/A,,Clear,0,2013-01-05 18:56:00
2:56 PM,46.0,28.9,51,30.35,-9999.0,East,3.5,-,N/A,,Clear,90,2013-01-05 19:56:00
3:56 PM,46.9,33.1,59,30.34,-9999.0,East,5.8,-,N/A,,Clear,90,2013-01-05 20:56:00
4:56 PM,46.0,33.1,61,30.33,-9999.0,East,4.6,-,N/A,,Clear,90,2013-01-05 21:56:00
5:56 PM,44.1,35.1,71,30.35,-9999.0,Calm,Calm,-,N/A,,Clear,0,2013-01-05 22:56:00
6:56 PM,43.0,37.0,80,30.35,-9999.0,Calm,Calm,-,N/A,,Clear,0,2013-01-05 23:56:00
7:56 PM,43.0,39.0,86,30.36,-9999.0,West,5.8,-,N/A,,Clear,280,2013-01-06 00:56:00
8:56 PM,44.1,39.9,85,30.34,-9999.0,West,3.5,-,N/A,,Clear,270,2013-01-06 01:56:00
9:56 PM,42.1,37.9,85,30.32,-9999.0,Calm,Calm,-,N/A,,Clear,0,2013-01-06 02:56:00
10:56 PM,41.0,37.9,89,30.30,-9999.0,WSW,5.8,-,N/A,,Clear,240,2013-01-06 03:56:00
11:56 PM,42.1,37.0,82,30.30,-9999.0,WSW,5.8,-,N/A,,Clear,240,2013-01-06 04:56:00